Barksdale AFB, LA

6:43 PM CST on December 04, 2016 (GMT -0600)
Barksdale Air Force Base

Weather History for KBAD - February, 2013

Change the Weather History Date:

Thursday, February 21, 2013

  Actual Average Record
Temperature  
Mean Temperature 53 °F -  
Max Temperature 62 °F 59 °F 79 °F (2007)
Min Temperature 44 °F 41 °F 34 °F (2009)
Degree Days  
Heating Degree Days 12    
Growing Degree Days 3 (Base 50)    
Moisture  
Dew Point 44 °F    
Average Humidity 80    
Maximum Humidity 100    
Minimum Humidity 50    
Precipitation  
Precipitation 0.17 in - - ()
Sea Level Pressure  
Sea Level Pressure 29.80 in    
Wind  
Wind Speed 11 mph (ESE)    
Max Wind Speed 18 mph    
Max Gust Speed 25 mph    
Visibility 9 miles    
Events Rain , Thunderstorm    
Averages and records for this station are not official NWS values.
T = Trace of Precipitation, MM = Missing Value Source: NWS Daily Summary

Daily Weather History Graph

Daily Weather History Graph

Search for Another Location

Airport or City:

Trip Planner

Search our weather history database for the weather conditions in past years. The results will help you decide how hot, cold, wet, or windy it might be!

Date:

Astronomy

Feb. 21, 2013 Rise Set
Actual Time 6:51 AM CST 6:05 PM CST
Civil Twilight 6:26 AM CST 6:30 PM CST
Nautical Twilight 5:57 AM CST 6:59 PM CST
Astronomical Twilight 5:29 AM CST 7:27 PM CST
Moon 2:29 PM CST (2/21) 3:47 AM CST (2/21)
Length of Visible Light 12h 04m
Length of Day
11h 14m
Waxing Gibbous, 84% of the Moon is Illuminated
Feb 21
Waxing Gibbous
Feb 25
Full
Mar 4
Last Quarter
Mar 11
New
Mar 19
First Quarter

Hourly Weather History & Observations

Time (CST) Temp. Windchill Dew Point Humidity Pressure Visibility Wind Dir Wind Speed Gust Speed Precip Events Conditions
12:28 AM 44.6 °F 38.4 °F 30.2 °F 57% 29.96 in 10.0 mi East 12.7 mph - N/A   Light Drizzle
12:35 AM 44.6 °F 39.7 °F 28.4 °F 53% 29.96 in 10.0 mi East 9.2 mph - N/A   Overcast
12:39 AM 44.6 °F 38.8 °F 30.2 °F 57% 29.95 in 10.0 mi East 11.5 mph - N/A Rain Light Rain
12:50 AM 44.6 °F 38.4 °F 28.4 °F 53% 29.95 in 10.0 mi East 12.7 mph - N/A   Overcast
12:58 AM 44.2 °F 38.8 °F 28.4 °F 54% 29.95 in 10.0 mi East 10.4 mph - 0.00 in   Overcast
1:58 AM 45.3 °F 39.7 °F 28.6 °F 52% 29.92 in 10.0 mi ESE 11.5 mph - N/A   Overcast
2:58 AM 46.2 °F 40.8 °F 28.6 °F 50% 29.90 in 10.0 mi ESE 11.5 mph - N/A   Overcast
3:58 AM 46.8 °F - 29.7 °F 51% 29.88 in 10.0 mi East 11.5 mph - N/A   Overcast
4:33 AM 46.4 °F 40.7 °F 32.0 °F 57% 29.86 in 10.0 mi East 12.7 mph - N/A Rain Light Rain
4:43 AM 46.4 °F 41.5 °F 32.0 °F 57% 29.86 in 10.0 mi East 10.4 mph - N/A   Overcast
4:58 AM 46.9 °F - 30.6 °F 53% 29.87 in 10.0 mi East 11.5 mph - 0.00 in   Overcast
5:32 AM 46.4 °F 41.9 °F 32.0 °F 57% 29.85 in 10.0 mi ESE 9.2 mph - N/A Rain Light Rain
5:42 AM 46.4 °F 41.1 °F 32.0 °F 57% 29.85 in 10.0 mi East 11.5 mph - N/A   Overcast
5:58 AM 46.8 °F - 32.7 °F 58% 29.86 in 10.0 mi East 10.4 mph - 0.00 in   Overcast
6:03 AM 46.4 °F 40.7 °F 32.0 °F 57% 29.85 in 10.0 mi East 12.7 mph - N/A Rain Light Rain
6:57 AM 48.2 °F - 32.0 °F 54% 29.84 in 10.0 mi East 8.1 mph - N/A   Light Drizzle
6:58 AM 48.0 °F - 33.1 °F 56% 29.85 in 10.0 mi East 6.9 mph - 0.00 in   Light Drizzle
7:08 AM 48.2 °F - 32.0 °F 54% 29.82 in 10.0 mi East 10.4 mph - N/A   Overcast
7:58 AM 48.7 °F - 33.3 °F 55% 29.82 in 10.0 mi ESE 10.4 mph - 0.00 in   Overcast
8:10 AM 50.0 °F - 33.8 °F 54% 29.79 in 10.0 mi ESE 15.0 mph 21.9 mph N/A Rain , Thunderstorm Light Rain Showers
8:12 AM 48.2 °F - 33.8 °F 58% 29.80 in 3.0 mi SE 16.1 mph - N/A Rain , Thunderstorm Rain Showers
8:15 AM 48.2 °F - 35.6 °F 62% 29.80 in 3.0 mi SE 18.4 mph - N/A Rain , Thunderstorm Thunderstorms and Rain
8:31 AM 46.4 °F 40.7 °F 39.2 °F 76% 29.77 in 10.0 mi SE 12.7 mph 25.3 mph N/A Rain , Thunderstorm Light Rain Showers
8:39 AM 46.4 °F 40.7 °F 39.2 °F 76% 29.77 in 10.0 mi SE 12.7 mph - N/A   Overcast
8:53 AM 46.4 °F 41.1 °F 39.2 °F 76% 29.78 in 10.0 mi SE 11.5 mph - N/A Rain , Thunderstorm Light Thunderstorms and Rain
8:54 AM 46.4 °F 40.7 °F 39.2 °F 76% 29.78 in 10.0 mi SE 12.7 mph - N/A Rain , Thunderstorm Light Thunderstorms and Rain
8:58 AM 46.4 °F 40.7 °F 39.0 °F 75% 29.79 in 8.0 mi SE 12.7 mph - 0.10 in Rain , Thunderstorm Light Thunderstorms and Rain
9:03 AM 46.4 °F 40.4 °F 39.2 °F 76% 29.77 in 8.0 mi SE 13.8 mph - N/A Rain , Thunderstorm Light Rain
9:13 AM 46.4 °F 40.4 °F 41.0 °F 81% 29.76 in 10.0 mi SE 13.8 mph - N/A   Overcast
9:22 AM 46.4 °F 40.1 °F 41.0 °F 81% 29.76 in 10.0 mi SE 15.0 mph - N/A Rain Light Rain Showers
9:41 AM 46.4 °F 40.1 °F 42.8 °F 87% 29.76 in 7.0 mi SE 15.0 mph - N/A   Overcast
9:42 AM 46.4 °F 40.1 °F 42.8 °F 87% 29.76 in 7.0 mi SE 15.0 mph - N/A Rain Light Rain
9:58 AM 46.6 °F - 43.5 °F 89% 29.78 in 10.0 mi SE 10.4 mph - 0.03 in Rain Light Rain
10:27 AM 48.2 °F - 46.4 °F 93% 29.76 in 10.0 mi SE 10.4 mph - N/A   Overcast
10:58 AM 50.0 °F - 48.2 °F 94% 29.77 in 10.0 mi SE 15.0 mph - 0.00 in   Overcast
11:36 AM 51.8 °F - 50.0 °F 94% 29.74 in 10.0 mi SSE 10.4 mph - N/A   Light Drizzle
11:42 AM 51.8 °F - 50.0 °F 94% 29.74 in 6.0 mi SSE 9.2 mph - N/A Rain Light Rain
11:58 AM 52.2 °F - 51.1 °F 96% 29.75 in 9.0 mi SSE 9.2 mph - 0.02 in Rain Light Rain Showers
12:15 PM 53.6 °F - 53.6 °F 100% 29.72 in 10.0 mi South 11.5 mph - N/A Rain Light Rain
12:25 PM 53.6 °F - 53.6 °F 100% 29.71 in 10.0 mi SSE 11.5 mph - N/A   Overcast
12:58 PM 56.7 °F - 55.8 °F 97% 29.66 in 10.0 mi SE 15.0 mph - 0.00 in   Overcast
1:40 PM 59.0 °F - 59.0 °F 100% 29.66 in 10.0 mi SSE 13.8 mph - N/A Thunderstorm Mostly Cloudy
1:45 PM 59.0 °F - 59.0 °F 100% 29.65 in 8.0 mi SSE 15.0 mph - N/A Rain , Thunderstorm Light Rain Showers
1:58 PM 60.3 °F - 60.3 °F 100% 29.65 in 10.0 mi SSE 17.3 mph - 0.01 in Rain Light Rain
2:00 PM 60.8 °F - 60.8 °F 100% 29.63 in 10.0 mi SSE 18.4 mph - N/A   Mostly Cloudy
2:01 PM 60.8 °F - 60.8 °F 100% 29.64 in 10.0 mi SSE 17.3 mph - N/A   Mostly Cloudy
2:30 PM 62.6 °F - 60.8 °F 94% 29.65 in 10.0 mi South 12.7 mph 21.9 mph N/A   Mostly Cloudy
2:45 PM 62.6 °F - 60.8 °F 94% 29.65 in 10.0 mi SSW 8.1 mph - N/A   Overcast
2:58 PM 62.2 °F - 60.6 °F 94% 29.66 in 10.0 mi South 9.2 mph - 0.00 in   Overcast
3:21 PM 62.6 °F - 59.0 °F 88% 29.67 in 6.0 mi WNW 16.1 mph - N/A Rain Light Rain Showers
3:36 PM 59.0 °F - 57.2 °F 94% 29.68 in 9.0 mi NNW 15.0 mph - N/A Rain Light Rain
3:43 PM 59.0 °F - 57.2 °F 94% 29.68 in 10.0 mi NNW 12.7 mph - N/A   Overcast
3:58 PM 58.1 °F - 57.9 °F 99% 29.70 in 10.0 mi NW 9.2 mph - 0.01 in   Overcast
4:13 PM 59.0 °F - 57.2 °F 94% 29.69 in 10.0 mi NNW 8.1 mph - N/A   Overcast
4:58 PM 58.1 °F - 55.9 °F 93% 29.72 in 10.0 mi NW 9.2 mph - N/A   Mostly Cloudy
5:58 PM 54.9 °F - 53.1 °F 94% 29.77 in 10.0 mi North 9.2 mph - N/A   Clear
6:58 PM 51.1 °F - 49.6 °F 95% 29.80 in 10.0 mi North 6.9 mph - N/A   Clear
7:58 PM 48.0 °F - 47.3 °F 97% 29.84 in 10.0 mi North 6.9 mph - N/A   Clear
8:38 PM 46.4 °F 42.4 °F 46.4 °F 100% 29.85 in 10.0 mi North 8.1 mph - N/A   Partly Cloudy
8:58 PM 45.7 °F 42.7 °F 45.3 °F 99% 29.86 in 10.0 mi North 5.8 mph - N/A   Mostly Cloudy
9:43 PM 44.6 °F 42.2 °F 44.6 °F 100% 29.87 in 10.0 mi NNE 4.6 mph - N/A   Overcast
9:58 PM 45.0 °F 41.8 °F 44.8 °F 99% 29.89 in 10.0 mi North 5.8 mph - N/A   Overcast
10:43 PM 44.6 °F 41.4 °F 44.6 °F 100% 29.89 in 10.0 mi North 5.8 mph - N/A   Overcast
10:58 PM 44.8 °F 40.4 °F 44.6 °F 99% 29.91 in 10.0 mi North 8.1 mph - N/A   Overcast
11:28 PM 44.6 °F 41.4 °F 44.6 °F 100% 29.92 in 4.0 mi North 5.8 mph - N/A   Overcast
11:43 PM 44.6 °F 42.2 °F 44.6 °F 100% 29.92 in 4.0 mi NNE 4.6 mph - N/A   Overcast
11:58 PM 44.2 °F 41.8 °F 44.2 °F 100% 29.92 in 2.0 mi North 4.6 mph - N/A   Overcast